Satellite-Ground Cal/Val Region Overpasses Predictions

Prediction of Satellite NPP Overpassing Cal/Val Region: PacNW

Region Location: (Latitude: 10.00, Longitude: 139.50) to (Latitude: 22.70, Longitude: 165.60).

Table of predicted overpasses for the next 14.0 days since TLE Epoch: 5/1/2020
Interval Starting Time Starting Location Ending Time Ending Location
1 05/02/2020 03:42:27 ( 10.04, 144.02) 05/02/2020 03:46:02 ( 22.67, 141.01)
2 05/02/2020 14:34:02 ( 18.45, 165.59) 05/02/2020 14:36:25 ( 10.05, 163.63)
3 05/02/2020 16:14:20 ( 22.67, 141.26) 05/02/2020 16:16:23 ( 15.45, 139.51)
4 05/03/2020 03:23:25 ( 10.01, 148.78) 05/03/2020 03:27:01 ( 22.69, 145.76)
5 05/03/2020 15:55:17 ( 22.70, 146.02) 05/03/2020 15:58:53 ( 10.02, 143.00)
6 05/04/2020 03:04:23 ( 10.04, 153.53) 05/04/2020 03:07:58 ( 22.66, 150.53)
7 05/04/2020 15:36:16 ( 22.67, 150.77) 05/04/2020 15:39:51 ( 10.05, 147.77)
8 05/05/2020 02:45:21 ( 10.01, 158.30) 05/05/2020 02:48:57 ( 22.69, 155.28)
9 05/05/2020 15:17:13 ( 22.70, 155.54) 05/05/2020 15:20:49 ( 10.02, 152.52)
10 05/06/2020 02:26:19 ( 10.04, 163.05) 05/06/2020 02:29:54 ( 22.66, 160.05)
11 05/06/2020 14:58:12 ( 22.67, 160.29) 05/06/2020 15:01:47 ( 10.05, 157.29)
12 05/07/2020 02:09:58 ( 19.47, 165.59) 05/07/2020 02:10:53 ( 22.69, 164.80)
13 05/07/2020 03:48:47 ( 10.02, 142.44) 05/07/2020 03:52:17 ( 22.35, 139.51)
14 05/07/2020 14:39:10 ( 22.70, 165.06) 05/07/2020 14:42:46 ( 10.02, 162.04)
15 05/07/2020 16:20:39 ( 22.69, 139.68) 05/07/2020 16:20:51 ( 21.99, 139.51)
16 05/08/2020 03:29:45 ( 10.05, 147.19) 05/08/2020 03:33:20 ( 22.67, 144.19)
17 05/08/2020 16:01:38 ( 22.66, 144.43) 05/08/2020 16:05:13 ( 10.04, 141.43)
18 05/09/2020 03:10:43 ( 10.02, 151.96) 05/09/2020 03:14:18 ( 22.64, 148.95)
19 05/09/2020 15:42:36 ( 22.69, 149.20) 05/09/2020 15:46:12 ( 10.01, 146.18)
20 05/10/2020 02:51:41 ( 10.05, 156.71) 05/10/2020 02:55:16 ( 22.68, 153.70)
21 05/10/2020 15:23:34 ( 22.66, 153.95) 05/10/2020 15:27:09 ( 10.04, 150.95)
22 05/11/2020 02:32:39 ( 10.03, 161.47) 05/11/2020 02:36:14 ( 22.65, 158.47)
23 05/11/2020 15:04:32 ( 22.69, 158.71) 05/11/2020 15:08:08 ( 10.01, 155.70)
24 05/12/2020 02:14:24 ( 12.82, 165.59) 05/12/2020 02:17:12 ( 22.68, 163.22)
25 05/12/2020 03:55:06 ( 10.01, 140.86) 05/12/2020 03:56:45 ( 15.82, 139.51)
26 05/12/2020 14:45:30 ( 22.66, 163.47) 05/12/2020 14:49:05 ( 10.04, 160.46)
27 05/13/2020 03:36:05 ( 10.04, 145.61) 05/13/2020 03:39:40 ( 22.66, 142.61)
28 05/13/2020 14:29:36 ( 11.65, 165.59) 05/13/2020 14:30:04 ( 10.01, 165.21)
29 05/13/2020 16:07:58 ( 22.68, 142.85) 05/13/2020 16:11:33 ( 10.06, 139.85)
30 05/14/2020 03:17:02 ( 10.01, 150.38) 05/14/2020 03:20:38 ( 22.70, 147.36)
31 05/14/2020 15:48:56 ( 22.64, 147.61) 05/14/2020 15:52:31 ( 10.03, 144.60)
32 05/15/2020 02:58:01 ( 10.05, 155.13) 05/15/2020 03:01:36 ( 22.67, 152.13)


NCC Satellite Cal/Val Overpasses Prediction Service
